Time,TemperatureF,DewpointF,PressureIn,WindDirection,WindDirectionDegrees,WindSpeedMPH,WindSpeedGustMPH,Humidity,HourlyPrecipIn,Conditions,Clouds,dailyrainin,SoftwareType,DateUTC
2013-05-09 00:02:00,59.0,57.0,-100.00,North,5,4.0,7.0,91,0.00,,,0.00,,2013-05-09 05:02:00,
2013-05-09 00:12:00,59.0,57.0,-100.00,North,355,3.0,6.0,91,0.00,,,0.00,,2013-05-09 05:12:00,
2013-05-09 00:22:00,59.0,57.0,-100.00,NNE,15,4.0,6.0,91,0.00,,,0.00,,2013-05-09 05:22:00,
2013-05-09 00:32:00,59.0,57.0,-100.00,NNE,25,1.0,6.0,91,0.00,,,0.00,,2013-05-09 05:32:00,
2013-05-09 00:42:00,59.0,57.0,-100.00,North,10,1.0,2.0,91,0.00,,,0.00,,2013-05-09 05:42:00,
2013-05-09 00:51:00,59.0,57.0,-100.00,NNE,20,2.0,6.0,92,0.00,,,0.00,,2013-05-09 05:51:00,
2013-05-09 01:02:00,59.0,57.0,-100.00,NE,40,3.0,7.0,92,0.00,,,0.00,,2013-05-09 06:02:00,
2013-05-09 01:11:00,59.0,57.0,-100.00,North,10,2.0,7.0,92,0.00,,,0.00,,2013-05-09 06:11:00,
2013-05-09 01:21:00,58.0,55.0,-100.00,NNE,20,3.0,5.0,93,0.00,,,0.00,,2013-05-09 06:21:00,
2013-05-09 01:32:00,58.0,55.0,-100.00,NNE,20,4.0,6.0,93,0.00,,,0.00,,2013-05-09 06:32:00,
2013-05-09 01:42:00,58.0,55.0,-100.00,NNE,15,4.0,9.0,94,0.00,,,0.00,,2013-05-09 06:42:00,
2013-05-09 01:52:00,58.0,55.0,-100.00,North,10,5.0,9.0,94,0.00,,,0.00,,2013-05-09 06:52:00,
2013-05-09 02:01:00,58.0,55.0,-100.00,NNE,25,6.0,8.0,93,0.00,,,0.00,,2013-05-09 07:01:00,
2013-05-09 02:12:00,58.0,55.0,-100.00,NNE,20,6.0,11.0,92,0.00,,,0.00,,2013-05-09 07:12:00,
2013-05-09 02:21:00,58.0,55.0,-100.00,NNE,15,6.0,11.0,92,0.00,,,0.00,,2013-05-09 07:21:00,
2013-05-09 02:32:00,58.0,55.0,-100.00,NNE,30,6.0,11.0,91,0.00,,,0.00,,2013-05-09 07:32:00,
2013-05-09 02:42:00,58.0,55.0,-100.00,NNE,30,4.0,8.0,91,0.00,,,0.00,,2013-05-09 07:42:00,
2013-05-09 02:52:00,58.0,55.0,-100.00,NNE,25,4.0,12.0,90,0.00,,,0.00,,2013-05-09 07:52:00,
2013-05-09 03:02:00,58.0,55.0,-100.00,NE,35,6.0,10.0,89,0.00,,,0.00,,2013-05-09 08:02:00,
2013-05-09 03:11:00,58.0,55.0,-100.00,NNE,30,5.0,9.0,88,0.00,,,0.00,,2013-05-09 08:11:00,
2013-05-09 03:21:00,58.0,55.0,-100.00,NNE,25,6.0,11.0,88,0.00,,,0.00,,2013-05-09 08:21:00,
2013-05-09 03:32:00,58.0,55.0,-100.00,NNE,30,4.0,11.0,87,0.00,,,0.00,,2013-05-09 08:32:00,
2013-05-09 03:41:00,58.0,54.0,-100.00,North,5,6.0,9.0,86,0.00,,,0.00,,2013-05-09 08:41:00,
2013-05-09 03:51:00,58.0,54.0,-100.00,NNE,15,7.0,11.0,83,0.00,,,0.00,,2013-05-09 08:51:00,
2013-05-09 04:02:00,59.0,54.0,-100.00,NE,50,7.0,11.0,81,0.00,,,0.00,,2013-05-09 09:02:00,
2013-05-09 04:11:00,59.0,54.0,-100.00,NNE,30,4.0,11.0,81,0.00,,,0.00,,2013-05-09 09:11:00,
2013-05-09 04:21:00,59.0,54.0,-100.00,NE,35,4.0,9.0,82,0.00,,,0.00,,2013-05-09 09:21:00,
2013-05-09 04:32:00,58.0,54.0,-100.00,NNE,20,7.0,11.0,83,0.00,,,0.00,,2013-05-09 09:32:00,
2013-05-09 04:42:00,58.0,54.0,-100.00,NE,50,6.0,11.0,83,0.00,,,0.00,,2013-05-09 09:42:00,
2013-05-09 04:52:00,58.0,54.0,-100.00,NNE,30,5.0,10.0,84,0.00,,,0.00,,2013-05-09 09:52:00,
2013-05-09 05:02:00,58.0,54.0,-100.00,NNE,25,6.0,9.0,84,0.00,,,0.00,,2013-05-09 10:02:00,
2013-05-09 05:12:00,58.0,54.0,-100.00,NE,35,4.0,7.0,84,0.00,,,0.00,,2013-05-09 10:12:00,
2013-05-09 05:22:00,58.0,54.0,-100.00,NNE,20,5.0,9.0,85,0.00,,,0.00,,2013-05-09 10:22:00,
2013-05-09 05:33:00,58.0,54.0,-100.00,NE,35,3.0,10.0,85,0.00,,,0.00,,2013-05-09 10:33:00,
2013-05-09 05:42:00,58.0,54.0,-100.00,NNE,15,4.0,7.0,85,0.00,,,0.00,,2013-05-09 10:42:00,
2013-05-09 05:52:00,58.0,54.0,-100.00,NNE,30,4.0,7.0,85,0.00,,,0.00,,2013-05-09 10:52:00,
2013-05-09 06:02:00,58.0,54.0,-100.00,NNE,25,4.0,7.0,85,0.00,,,0.00,,2013-05-09 11:02:00,
2013-05-09 06:12:00,58.0,54.0,-100.00,NNE,25,4.0,7.0,85,0.00,,,0.00,,2013-05-09 11:12:00,
2013-05-09 06:22:00,58.0,54.0,-100.00,NNE,25,3.0,8.0,85,0.00,,,0.00,,2013-05-09 11:22:00,
2013-05-09 06:32:00,58.0,54.0,-100.00,NNE,15,4.0,9.0,85,0.00,,,0.00,,2013-05-09 11:32:00,
2013-05-09 06:41:00,58.0,54.0,-100.00,NNE,20,5.0,9.0,85,0.00,,,0.00,,2013-05-09 11:41:00,
2013-05-09 06:51:00,58.0,54.0,-100.00,North,10,4.0,10.0,86,0.00,,,0.00,,2013-05-09 11:51:00,
2013-05-09 07:01:00,58.0,54.0,-100.00,NNE,30,4.0,9.0,86,0.00,,,0.00,,2013-05-09 12:01:00,
2013-05-09 07:11:00,58.0,54.0,-100.00,NNE,30,6.0,13.0,86,0.00,,,0.00,,2013-05-09 12:11:00,
2013-05-09 07:22:00,58.0,54.0,-100.00,NNE,30,4.0,7.0,86,0.00,,,0.00,,2013-05-09 12:22:00,
2013-05-09 07:31:00,58.0,54.0,-100.00,NNE,20,4.0,6.0,86,0.00,,,0.00,,2013-05-09 12:31:00,
2013-05-09 07:42:00,58.0,55.0,-100.00,NNE,15,4.0,9.0,87,0.00,,,0.00,,2013-05-09 12:42:00,
2013-05-09 07:51:00,58.0,54.0,-100.00,North,10,3.0,7.0,87,0.00,,,0.00,,2013-05-09 12:51:00,
2013-05-09 08:01:00,58.0,55.0,-100.00,NNE,25,6.0,9.0,88,0.00,,,0.00,,2013-05-09 13:01:00,
2013-05-09 08:12:00,58.0,55.0,-100.00,NNE,20,6.0,8.0,88,0.00,,,0.00,,2013-05-09 13:12:00,
2013-05-09 08:21:00,58.0,55.0,-100.00,NNE,25,4.0,8.0,88,0.00,,,0.00,,2013-05-09 13:21:00,
2013-05-09 08:32:00,58.0,55.0,-100.00,NE,40,6.0,9.0,88,0.00,,,0.00,,2013-05-09 13:32:00,
2013-05-09 08:42:00,58.0,55.0,-100.00,NNE,15,5.0,9.0,88,0.00,,,0.00,,2013-05-09 13:42:00,
2013-05-09 08:52:00,58.0,55.0,-100.00,NNE,30,4.0,10.0,88,0.00,,,0.00,,2013-05-09 13:52:00,
2013-05-09 09:01:00,58.0,55.0,-100.00,NNE,30,6.0,9.0,88,0.00,,,0.00,,2013-05-09 14:01:00,
2013-05-09 09:11:00,58.0,55.0,-100.00,NNE,20,6.0,9.0,88,0.00,,,0.00,,2013-05-09 14:11:00,
2013-05-09 09:21:00,58.0,55.0,-100.00,NE,35,7.0,12.0,88,0.00,,,0.00,,2013-05-09 14:21:00,
2013-05-09 09:32:00,58.0,54.0,-100.00,NNE,30,7.0,15.0,88,0.00,,,0.00,,2013-05-09 14:32:00,
2013-05-09 09:41:00,58.0,54.0,-100.00,NNE,20,6.0,11.0,88,0.00,,,0.00,,2013-05-09 14:41:00,
2013-05-09 09:52:00,58.0,55.0,-100.00,NE,35,7.0,12.0,88,0.00,,,0.00,,2013-05-09 14:52:00,
2013-05-09 10:01:00,58.0,55.0,-100.00,NE,35,7.0,11.0,88,0.00,,,0.00,,2013-05-09 15:01:00,
2013-05-09 10:11:00,58.0,55.0,-100.00,NE,35,4.0,9.0,88,0.00,,,0.00,,2013-05-09 15:11:00,
2013-05-09 10:22:00,58.0,55.0,-100.00,North,10,6.0,13.0,88,0.00,,,0.00,,2013-05-09 15:22:00,
2013-05-09 10:33:00,58.0,55.0,-100.00,NNE,25,6.0,12.0,87,0.00,,,0.00,,2013-05-09 15:33:00,
2013-05-09 10:43:00,59.0,55.0,-100.00,NNE,25,5.0,9.0,86,0.00,,,0.00,,2013-05-09 15:43:00,
2013-05-09 10:52:00,59.0,54.0,-100.00,NNE,30,7.0,11.0,83,0.00,,,0.00,,2013-05-09 15:52:00,
2013-05-09 11:03:00,59.0,54.0,-100.00,NE,40,6.0,15.0,82,0.00,,,0.00,,2013-05-09 16:03:00,
2013-05-09 11:12:00,59.0,54.0,-100.00,NNE,30,7.0,12.0,81,0.00,,,0.00,,2013-05-09 16:12:00,
2013-05-09 11:22:00,60.0,54.0,-100.00,North,0,4.0,15.0,80,0.00,,,0.00,,2013-05-09 16:22:00,
2013-05-09 11:33:00,59.0,54.0,-100.00,North,0,8.0,15.0,80,0.00,,,0.00,,2013-05-09 16:33:00,
2013-05-09 11:42:00,59.0,54.0,-100.00,North,10,6.0,16.0,80,0.00,,,0.00,,2013-05-09 16:42:00,
2013-05-09 11:52:00,58.0,54.0,-100.00,NNE,20,6.0,16.0,82,0.00,,,0.00,,2013-05-09 16:52:00,
2013-05-09 12:02:00,58.0,54.0,-100.00,NNE,30,8.0,16.0,83,0.00,,,0.00,,2013-05-09 17:02:00,
2013-05-09 12:12:00,58.0,54.0,-100.00,NNE,20,8.0,16.0,85,0.00,,,0.00,,2013-05-09 17:12:00,
2013-05-09 12:21:00,58.0,54.0,-100.00,NE,35,8.0,16.0,86,0.00,,,0.00,,2013-05-09 17:21:00,
2013-05-09 12:32:00,57.0,54.0,-100.00,NNE,15,7.0,16.0,90,0.00,,,0.00,,2013-05-09 17:32:00,
2013-05-09 12:42:00,56.0,54.0,-100.00,North,10,7.0,16.0,93,0.00,,,0.00,,2013-05-09 17:42:00,
2013-05-09 12:55:00,55.0,54.0,-100.00,NNE,15,11.0,19.0,95,0.00,,,0.00,,2013-05-09 17:55:00,
2013-05-09 13:01:00,54.0,54.0,-100.00,NNE,20,7.0,16.0,97,0.00,,,0.00,,2013-05-09 18:01:00,
2013-05-09 13:12:00,54.0,54.0,-100.00,NNE,15,12.0,17.0,97,0.00,,,0.00,,2013-05-09 18:12:00,
2013-05-09 13:21:00,54.0,54.0,-100.00,NNE,25,7.0,18.0,98,0.00,,,0.00,,2013-05-09 18:21:00,
2013-05-09 13:31:00,53.0,52.0,-100.00,NNE,25,7.0,19.0,99,0.00,,,0.00,,2013-05-09 18:31:00,
2013-05-09 14:21:00,51.0,50.0,-100.00,North,10,11.0,20.0,99,0.00,,,0.00,,2013-05-09 19:21:00,
2013-05-09 14:31:00,50.0,50.0,-100.00,NNE,25,9.0,20.0,99,0.00,,,0.00,,2013-05-09 19:31:00,
2013-05-09 14:41:00,50.0,50.0,-100.00,NE,40,11.0,18.0,98,0.00,,,0.00,,2013-05-09 19:41:00,
2013-05-09 14:52:00,50.0,50.0,-100.00,NNE,15,12.0,20.0,96,0.00,,,0.00,,2013-05-09 19:52:00,
2013-05-09 15:01:00,50.0,50.0,-100.00,NNE,30,11.0,17.0,95,0.00,,,0.00,,2013-05-09 20:01:00,
2013-05-09 15:11:00,50.0,50.0,-100.00,North,5,9.0,17.0,95,0.00,,,0.00,,2013-05-09 20:11:00,
2013-05-09 15:22:00,51.0,48.0,-100.00,NNE,20,9.0,18.0,93,0.00,,,0.00,,2013-05-09 20:22:00,
2013-05-09 15:32:00,51.0,50.0,-100.00,NNE,25,6.0,17.0,92,0.00,,,0.00,,2013-05-09 20:32:00,
2013-05-09 15:42:00,51.0,48.0,-100.00,North,5,9.0,17.0,90,0.00,,,0.00,,2013-05-09 20:42:00,
2013-05-09 15:52:00,52.0,48.0,-100.00,NNE,30,8.0,20.0,88,0.00,,,0.00,,2013-05-09 20:52:00,
2013-05-09 16:02:00,52.0,48.0,-100.00,NE,40,10.0,19.0,86,0.00,,,0.00,,2013-05-09 21:02:00,
2013-05-09 16:11:00,51.0,46.0,-100.00,NNE,20,9.0,18.0,85,0.00,,,0.00,,2013-05-09 21:11:00,
2013-05-09 16:22:00,51.0,46.0,-100.00,NE,35,10.0,17.0,84,0.00,,,0.00,,2013-05-09 21:22:00,
2013-05-09 16:32:00,51.0,46.0,-100.00,NNE,15,10.0,17.0,84,0.00,,,0.00,,2013-05-09 21:32:00,
2013-05-09 16:43:00,50.0,46.0,-100.00,North,10,12.0,22.0,84,0.00,,,0.00,,2013-05-09 21:43:00,
2013-05-09 16:52:00,50.0,45.0,-100.00,NNE,30,9.0,21.0,84,0.00,,,0.00,,2013-05-09 21:52:00,
2013-05-09 17:03:00,50.0,45.0,-100.00,North,0,12.0,17.0,83,0.00,,,0.00,,2013-05-09 22:03:00,
2013-05-09 17:12:00,50.0,45.0,-100.00,NNE,25,10.0,19.0,83,0.00,,,0.00,,2013-05-09 22:12:00,
2013-05-09 17:22:00,50.0,45.0,-100.00,NNE,15,12.0,19.0,83,0.00,,,0.00,,2013-05-09 22:22:00,
2013-05-09 17:33:00,49.0,45.0,-100.00,NE,35,7.0,21.0,83,0.00,,,0.00,,2013-05-09 22:33:00,
2013-05-09 17:42:00,49.0,45.0,-100.00,North,0,8.0,14.0,83,0.00,,,0.00,,2013-05-09 22:42:00,
2013-05-09 17:52:00,49.0,43.0,-100.00,North,10,12.0,22.0,80,0.00,,,0.00,,2013-05-09 22:52:00,
2013-05-09 18:02:00,49.0,43.0,-100.00,NNE,30,10.0,19.0,79,0.00,,,0.00,,2013-05-09 23:02:00,
2013-05-09 18:12:00,49.0,43.0,-100.00,NNE,25,6.0,15.0,79,0.00,,,0.00,,2013-05-09 23:12:00,
2013-05-09 18:21:00,49.0,43.0,-100.00,NNE,15,7.0,16.0,79,0.00,,,0.00,,2013-05-09 23:21:00,
2013-05-09 18:32:00,49.0,43.0,-100.00,NNE,25,9.0,17.0,77,0.00,,,0.00,,2013-05-09 23:32:00,
2013-05-09 18:42:00,49.0,43.0,-100.00,NNE,25,9.0,17.0,75,0.00,,,0.00,,2013-05-09 23:42:00,
2013-05-09 18:52:00,48.0,41.0,-100.00,NNE,25,15.0,32.0,74,0.00,,,0.00,,2013-05-09 23:52:00,
2013-05-09 19:01:00,48.0,41.0,-100.00,NE,35,14.0,24.0,73,0.00,,,0.00,,2013-05-10 00:01:00,
2013-05-09 19:11:00,48.0,41.0,-100.00,NE,45,9.0,24.0,73,0.00,,,0.00,,2013-05-10 00:11:00,
2013-05-09 19:22:00,48.0,39.0,-100.00,NNE,30,13.0,23.0,73,0.00,,,0.00,,2013-05-10 00:22:00,
2013-05-09 19:32:00,48.0,39.0,-100.00,NNE,20,7.0,21.0,73,0.00,,,0.00,,2013-05-10 00:32:00,
2013-05-09 19:42:00,48.0,41.0,-100.00,NE,35,9.0,15.0,73,0.00,,,0.00,,2013-05-10 00:42:00,
2013-05-09 19:51:00,48.0,39.0,-100.00,NNE,20,10.0,21.0,73,0.00,,,0.00,,2013-05-10 00:51:00,
2013-05-09 20:01:00,48.0,39.0,-100.00,NNE,15,7.0,21.0,72,0.00,,,0.00,,2013-05-10 01:01:00,
2013-05-09 20:11:00,47.0,39.0,-100.00,NE,40,10.0,24.0,70,0.00,,,0.00,,2013-05-10 01:11:00,
2013-05-09 20:21:00,47.0,37.0,-100.00,NNE,20,8.0,15.0,69,0.00,,,0.00,,2013-05-10 01:21:00,
2013-05-09 20:32:00,47.0,37.0,-100.00,NE,35,9.0,18.0,68,0.00,,,0.00,,2013-05-10 01:32:00,
2013-05-09 20:41:00,47.0,37.0,-100.00,NE,40,6.0,17.0,67,0.00,,,0.00,,2013-05-10 01:41:00,
2013-05-09 20:52:00,47.0,36.0,-100.00,NE,55,9.0,19.0,63,0.00,,,0.00,,2013-05-10 01:52:00,
2013-05-09 21:01:00,47.0,34.0,-100.00,NNE,30,9.0,17.0,61,0.00,,,0.00,,2013-05-10 02:01:00,
2013-05-09 21:11:00,47.0,34.0,-100.00,NE,35,7.0,16.0,60,0.00,,,0.00,,2013-05-10 02:11:00,
2013-05-09 21:21:00,47.0,32.0,-100.00,NNE,15,8.0,16.0,57,0.00,,,0.00,,2013-05-10 02:21:00,
2013-05-09 21:32:00,47.0,32.0,-100.00,NNE,30,9.0,18.0,56,0.00,,,0.00,,2013-05-10 02:32:00,
2013-05-09 21:42:00,47.0,32.0,-100.00,NE,40,10.0,16.0,55,0.00,,,0.00,,2013-05-10 02:42:00,
2013-05-09 21:52:00,47.0,32.0,-100.00,NE,40,7.0,17.0,55,0.00,,,0.00,,2013-05-10 02:52:00,
2013-05-09 22:01:00,46.0,32.0,-100.00,NE,35,9.0,15.0,55,0.00,,,0.00,,2013-05-10 03:01:00,
2013-05-09 22:11:00,46.0,32.0,-100.00,North,10,6.0,16.0,56,0.00,,,0.00,,2013-05-10 03:11:00,
2013-05-09 22:21:00,45.0,30.0,-100.00,NNE,25,10.0,19.0,56,0.00,,,0.00,,2013-05-10 03:21:00,
2013-05-09 22:33:00,45.0,30.0,-100.00,NNE,15,7.0,16.0,56,0.00,,,0.00,,2013-05-10 03:33:00,
2013-05-09 22:43:00,45.0,30.0,-100.00,NNE,20,8.0,17.0,56,0.00,,,0.00,,2013-05-10 03:43:00,
2013-05-09 22:52:00,45.0,30.0,-100.00,NNE,25,7.0,14.0,56,0.00,,,0.00,,2013-05-10 03:52:00,
2013-05-09 23:03:00,45.0,30.0,-100.00,NNE,20,8.0,15.0,56,0.00,,,0.00,,2013-05-10 04:03:00,
2013-05-09 23:12:00,44.0,30.0,-100.00,North,10,9.0,15.0,55,0.00,,,0.00,,2013-05-10 04:12:00,
2013-05-09 23:23:00,44.0,28.0,-100.00,North,5,9.0,14.0,55,0.00,,,0.00,,2013-05-10 04:23:00,
2013-05-09 23:33:00,44.0,28.0,-100.00,NNE,20,7.0,13.0,55,0.00,,,0.00,,2013-05-10 04:33:00,
2013-05-09 23:42:00,44.0,28.0,-100.00,NE,50,6.0,17.0,54,0.00,,,0.00,,2013-05-10 04:42:00,
2013-05-09 23:52:00,44.0,28.0,-100.00,NE,55,8.0,15.0,53,0.00,,,0.00,,2013-05-10 04:52:00,